Location: ??????????
(42.1626°N, 44.1160°E)
Time: 10:04:12
(UTC+00:00)

YAOGAN 1 - Pass Details

Date: 03 March 2021
Orbit: 618 x 620 km, 97.9° (Epoch: 20 April)

Event Time Altitude Azimuth Distance (km) Brightness Sun altitude
Rises 15:58:21 0° 173° (S) 2,881 5.9 -12.4°
Reaches altitude 10° 16:00:32 10° 176° (S) 1,980 5.1 -12.8°
Maximum altitude 16:04:49 66° 258° (WSW) 680 3.0 -13.5°
Drops below altitude 10° 16:09:08 10° 342° (NNW) 1,997 5.5 -14.3°
Sets 16:11:21 0° 345° (NNW) 2,907 6.3 -14.8°
